Weather past 2 weeks in Bantam, Cocos Islands

Now
82 °F

Scattered clouds.


Feels Like: 86 °F
Forecast: 78 / 83 °F
Wind: 15 mph from Southeast

Location: Cocos Island Airport

Current Time: Aug 3, 2015 at 4:02:24 PM

Latest Report: Aug 3, 2015 at 3:30 PM


Visibility: N/A

Pressure: 29.92 "Hg

Humidity: 66%

Dew point: 70 °F

Location of BantamLocation

Historic Weather in Bantam — Graph

°F

Bantam temperature yesterday

Maximum temperature yesterday: 82 °F (at 11:30 AM)
Minimum temperature yesterday: 77 °F (at 6:00 AM)
Average temperature yesterday: 80 °F

Past Weeks' High & Low Weather Summary

 TemperatureHumidityPressure
High84 °F (Jul 19, 2:30 PM)94% (Aug 1, 5:30 PM)30.04 "Hg (Aug 1, 5:30 PM)
Low72 °F (Jul 26, 4:00 AM)62% (Jul 26, 2:00 PM)29.80 "Hg (Jul 19, 4:30 PM)
Average81 °F76%29.94 "Hg
* Reported Jul 19 2:30 PM — Aug 3 3:00 PM, Bantam, Weather by CustomWeather, © 2015

Note: Actual official high and low records may vary slightly from our data, if they occured in-between our weather recording intervals... More about our weather records

Advertising

Bantam weather history for previous 24 hours

 ConditionsComfort  
Time TempWeatherWind HumidityBarometerVisibility
3:00 PM
Mon, Aug 3
82 °FPartly sunny.16 mph66%29.92 "HgN/A
2:30 PM82 °FPartly sunny.16 mph70%29.92 "HgN/A
2:00 PM82 °FPartly sunny.15 mph70%29.92 "HgN/A
1:30 PM82 °FPartly sunny.16 mph70%29.95 "HgN/A
1:00 PM82 °FPartly sunny.16 mph70%29.95 "HgN/A
12:30 PM82 °FPartly sunny.15 mph70%29.95 "HgN/A
12:00 PM82 °FPartly sunny.16 mph70%29.98 "HgN/A
11:30 AM82 °FPartly sunny.15 mph66%29.98 "HgN/A
10:30 AM82 °FPartly sunny.18 mph66%29.98 "HgN/A
10:00 AM81 °FPartly sunny.16 mph70%29.98 "HgN/A
9:30 AM81 °FPartly sunny.17 mph70%30.01 "HgN/A
9:00 AM81 °FPartly sunny.17 mph74%29.98 "HgN/A
8:30 AM81 °FPartly sunny.18 mph70%29.98 "HgN/A
8:00 AM81 °FPartly sunny.17 mph74%29.98 "HgN/A
7:30 AM81 °FBroken clouds.17 mph74%29.98 "HgN/A
7:00 AM81 °FPartly cloudy.17 mph70%29.98 "HgN/A
6:30 AM79 °FPartly cloudy.17 mph74%29.95 "HgN/A
6:00 AM79 °FPassing clouds.15 mph79%29.95 "HgN/A
5:30 AM79 °FPassing clouds.17 mph79%29.95 "HgN/A
5:00 AM79 °FWarm.16 mph79%29.95 "HgN/A
4:30 AM79 °FPassing clouds.15 mph79%29.95 "HgN/A
4:00 AM79 °FClear.16 mph79%29.92 "HgN/A
3:30 AM79 °FPassing clouds.16 mph74%29.92 "HgN/A
3:00 AM79 °FPartly cloudy.18 mph79%29.95 "HgN/A
2:30 AM79 °FPassing clouds.20 mph79%29.95 "HgN/A
2:00 AM79 °FPartly cloudy.18 mph79%29.95 "HgN/A
1:30 AM79 °FPartly cloudy.20 mph79%29.95 "HgN/A
1:00 AM79 °FPassing clouds.17 mph79%29.98 "HgN/A
12:30 AM79 °FPassing clouds.20 mph79%29.98 "HgN/A
12:00 AM79 °FWarm.18 mph79%29.98 "HgN/A
11:30 PM
Sun, Aug 2
81 °FPartly cloudy.21 mph74%30.01 "HgN/A
11:00 PM81 °FPartly cloudy.21 mph74%30.01 "HgN/A
10:30 PM81 °FPassing clouds.18 mph79%30.01 "HgN/A
10:00 PM81 °FMostly cloudy.22 mph74%30.01 "HgN/A
9:30 PM81 °FPartly cloudy.22 mph79%30.01 "HgN/A
8:30 PM81 °FClear.10 mph79%30.01 "HgN/A
8:00 PM81 °FPassing clouds.14 mph74%30.01 "HgN/A
7:30 PM81 °FWarm.16 mph74%30.01 "HgN/A
7:00 PM77 °FPartly cloudy.21 mph89%29.98 "HgN/A
6:30 PM79 °FSprinkles. More clouds than sun.12 mph74%29.98 "HgN/A
5:30 PM81 °FBroken clouds.15 mph74%29.95 "HgN/A
5:00 PM81 °FOvercast.15 mph79%29.95 "HgN/A
4:30 PM79 °FScattered clouds.17 mph79%29.95 "HgN/A
4:00 PM81 °FRain showers. Scattered clouds.16 mph74%29.95 "HgN/A
Weather by CustomWeather, © 2015

See weather overviewHow to use our weather pages